Wetbulb
56.59 56.53 56.20 55.76 55.83 55.51 55.33 55.27 55.41 55.24 55.50 55.48 55.45 55.42 55.46 55.48 55.59 55.97 56.48 56.84 56.63 56.28 56.63 57.17 57.84 58.55 60.98 58.00 57.32 67.58 72.99 72.55 69.16 67.51 66.28 62.60 61.70 60.99 60.61 60.12 62.52 63.80 63.26 63.08 63.71 64.38 65.05
56.48 56.23 55.94 55.59 55.63 55.31 54.93 54.87 55.36 55.06 54.83 55.08 55.05 55.20 55.30 55.16 55.65 55.89 56.05 56.10 56.12 55.71 56.25 57.27 57.99 58.41 59.53 53.30 61.74 65.35 64.31 67.98 64.78 63.34 61.62 61.19 59.86 61.23 59.49 59.62 61.04 64.30 63.79 62.65 63.37 64.19 64.83
56.47 55.93 55.81 55.64 55.74 55.16 54.85 54.83 54.77 54.59 54.68 54.79 55.07 55.53 55.64 55.63 55.10 54.77 55.45 55.32 54.72 55.19 56.27 58.40 58.70 60.15 57.77 57.15 61.51 62.36 64.34 63.64 64.04 63.52 59.96 60.62 61.03 59.23 59.99 58.34 62.20 63.75 60.69 62.45 62.70 63.87 63.57
55.95 55.72 55.53 55.42 55.52 55.15 54.79 54.67 54.40 54.14 54.11 54.39 54.81 55.15 55.39 55.53 55.23 55.00 54.69 54.27 54.17 55.67 58.69 60.53 60.07 61.88 56.28 62.64 63.91 61.45 62.00 61.01 62.99 64.44 62.26 62.18 61.31 59.84 59.24 60.82 61.47 60.31 61.26 58.45 62.16 62.91 64.84
55.70 55.59 55.31 55.25 55.23 55.00 54.80 54.54 54.24 54.02 54.46 54.57 54.47 54.73 54.55 54.71 54.48 53.93 53.26 53.49 54.97 57.99 60.89 60.63 62.82 61.90 57.27 64.05 60.19 61.21 61.83 59.52 61.62 61.89 63.17 61.98 60.16 57.75 58.76 56.33 57.25 58.98 56.37 57.34 59.32 63.35 64.50
56.32 55.90 55.66 55.16 54.98 55.12 55.01 54.97 54.57 54.58 54.62 54.37 54.40 54.29 54.11 53.93 53.63 52.93 52.47 53.63 58.37 59.54 61.83 64.51 64.32 59.72 60.17 58.60 62.07 63.05 64.44 62.78 59.79 59.78 59.00 58.32 56.83 54.86 56.31 55.79 52.63 56.36 56.59 58.21 59.47 61.02 63.87
56.07 55.59 55.14 54.94 54.80 55.35 55.19 55.09 54.96 54.35 54.43 54.21 54.20 53.94 53.80 53.34 52.91 51.93 53.28 58.55 58.08 59.25 61.49 59.31 59.97 58.15 58.74 61.52 62.87 60.74 63.14 60.81 59.89 57.99 53.69 55.82 52.46 51.31 55.13 57.35 58.67 59.43 58.80 56.87 60.57 61.41 62.28
55.82 55.55 54.80 54.68 54.99 55.29 55.27 55.06 54.87 54.99 54.12 54.22 53.88 53.57 53.45 52.97 52.16 51.35 54.55 54.67 52.26 52.57 48.96 54.57 55.85 57.06 61.15 61.14 57.37 59.77 62.77 56.86 56.79 53.31 54.82 53.35 50.53 54.64 57.46 57.53 57.65 58.12 58.02 57.93 59.55 61.55 61.90
55.37 55.39 55.42 55.30 55.55 55.53 55.10 54.79 54.56 54.36 54.05 53.76 53.51 53.37 53.01 52.21 51.35 56.05 53.44 55.46 56.84 55.29 49.34 52.15 55.30 54.74 55.93 57.57 56.11 57.07 60.65 57.25 55.17 53.65 52.84 51.24 52.49 55.14 56.14 56.15 56.21 57.01 57.45 58.10 57.04 62.19 62.95
55.81 55.58 55.52 55.55 55.49 55.41 54.85 54.70 54.27 54.09 53.88 53.63 53.51 53.16 52.54 51.06 51.62 53.95 53.78 57.17 56.88 55.39 47.00 50.99 52.89 54.70 56.12 56.56 53.23 58.96 61.04 58.04 55.38 53.37 53.36 52.73 55.03 53.59 54.48 54.62 56.68 54.50 58.88 58.60 58.00 57.82 55.98
55.83 55.56 55.52 55.60 55.39 54.92 54.36 54.11 53.94 53.84 53.45 53.47 53.61 52.99 51.84 50.08 51.44 52.47 53.96 56.05 55.67 54.80 42.04 54.32 54.57 59.61 57.47 54.54 56.57 55.73 60.05 58.96 54.32 54.01 54.48 51.98 52.43 52.63 52.53 54.44 57.29 55.83 59.34 58.81 58.75 57.32 58.20
56.10 55.93 55.54 55.46 55.15 54.72 54.09 53.72 53.69 53.59 53.34 53.12 52.97 52.43 51.58 52.55 54.50 55.69 56.36 56.01 53.98 46.67 42.39 51.60 55.11 53.97 54.26 54.74 56.13 57.27 56.08 59.77 58.60 55.47 55.10 54.32 56.41 54.64 54.34 56.10 56.96 58.32 57.88 58.75 58.44 57.27 52.32
56.11 55.99 55.73 55.33 55.04 54.48 53.84 53.57 53.57 53.32 52.89 52.54 51.74 51.02 50.81 52.82 50.58 56.38 55.31 52.09 44.19 42.29 52.53 50.97 52.11 54.04 54.18 53.88 54.73 55.35 53.18 53.24 52.46 50.12 50.82 53.00 53.41 54.66 55.47 53.22 56.03 55.86 55.21 51.04 50.22 50.68 50.51
55.89 55.93 55.87 55.52 54.89 54.35 53.86 53.69 53.45 52.60 52.46 52.03 50.51 49.08 52.92 54.66 56.90 56.66 52.88 46.34 40.23 47.67 49.12 53.43 53.41 54.10 51.77 54.00 54.08 54.42 52.92 50.97 54.29 53.99 51.76 49.45 47.86 53.12 54.50 53.30 52.94 53.83 54.39 51.05 46.95 48.22 50.85
55.81 55.76 55.64 55.45 55.06 54.53 54.08 53.67 53.04 52.58 52.34 51.45 49.39 53.44 53.11 55.24 56.76 55.40 49.58 40.13 43.26 47.64 51.57 51.24 52.57 50.79 51.70 52.62 52.95 53.85 53.41 52.05 53.32 54.61 51.03 50.77 50.29 55.10 54.92 54.85 54.05 53.33 52.15 56.30 53.17 54.38 51.82
55.42 54.90 54.49 54.48 54.25 54.02 53.78 53.53 52.87 52.70 52.36 51.10 50.10 51.36 52.35 56.14 57.16 53.34 45.74 41.34 46.41 49.50 51.36 51.01 48.55 51.53 49.92 51.47 51.11 51.91 52.65 54.78 53.32 55.08 56.22 53.85 50.47 54.67 54.47 55.21 54.11 53.16 56.16 51.45 53.65 49.01 48.79
54.11 54.02 54.14 53.86 53.82 53.76 53.55 53.39 52.85 52.48 51.82 50.99 49.85 46.80 54.83 57.31 56.27 49.79 42.69 44.24 46.67 49.24 49.50 48.16 48.27 49.72 51.07 51.15 52.27 51.54 51.57 54.50 55.35 54.98 55.69 54.34 53.17 52.57 54.80 52.33 51.08 50.99 51.64 53.88 54.03 53.33 49.95
53.71 53.85 53.54 53.76 53.63 53.26 52.69 52.99 52.54 51.82 50.67 49.85 49.36 43.56 54.96 56.25 46.22 47.23 44.45 47.15 47.59 49.24 50.75 48.64 48.77 49.26 50.21 51.48 51.14 52.20 51.69 53.49 56.25 55.89 53.01 54.89 53.08 50.45 52.25 55.14 55.36 53.87 51.91 52.99 53.26 51.67 53.21
53.06 53.08 53.12 53.47 53.39 52.81 52.85 53.01 52.23 51.18 51.11 49.77 45.84 47.48 53.20 52.11 40.67 42.38 46.30 46.65 48.12 47.59 48.56 48.38 46.69 48.42 50.21 49.78 49.56 51.79 52.61 55.41 55.19 54.78 54.38 55.21 52.25 48.87 50.54 53.18 54.93 52.21 52.91 52.87 53.44 54.91 54.30
52.40 52.37 52.49 52.63 52.81 52.40 52.43 52.47 51.96 51.34 51.07 49.16 45.65 42.28 47.75 49.03 48.68 44.16 43.43 44.41 44.97 49.74 47.82 48.65 48.13 48.96 47.56 47.36 50.86 49.97 51.05 53.76 54.96 54.23 62.14 58.58 53.09 51.14 48.56 51.24 53.31 51.14 51.51 52.45 52.10 51.33 52.87
52.24 52.28 52.13 51.99 51.98 51.76 51.65 52.10 51.77 51.03 50.52 46.83 45.62 43.34 44.29 41.49 43.40 43.29 44.74 45.11 43.13 43.18 47.92 50.27 48.00 47.78 46.91 45.46 46.75 47.46 50.22 52.70 53.89 58.38 55.57 54.69 51.78 52.98 52.79 53.94 54.02 52.09 50.97 50.96 50.73 52.34 51.15
52.21 52.19 52.19 52.05 51.78 51.67 51.74 51.68 51.43 50.81 50.26 44.59 40.64 42.70 45.65 43.50 44.33 42.30 41.53 41.81 40.76 42.18 44.25 44.13 45.34 47.92 48.85 46.73 47.90 46.84 49.39 51.15 51.63 53.88 52.96 54.94 51.53 53.91 52.48 53.79 53.68 52.40 51.67 51.20 51.27 51.86 52.69
51.68 51.73 51.98 52.08 52.06 51.73 51.69 52.02 51.62 51.02 49.64 44.76 47.96 47.86 43.18 41.00 41.28 39.91 39.56 41.83 41.68 43.47 44.85 46.33 44.90 44.92 46.08 49.22 51.69 53.32 54.24 53.43 53.48 53.43 53.19 53.27 51.95 51.19 48.90 52.86 52.66 49.63 52.85 53.08 52.84 53.25 52.48
51.07 51.07 51.41 51.79 51.69 51.75 51.89 51.96 51.77 51.45 50.03 49.24 45.62 44.45 40.67 37.74 40.27 40.23 39.88 39.79 39.91 42.36 41.35 43.84 44.17 41.93 47.05 51.44 52.98 54.25 53.98 54.30 53.64 52.87 54.29 53.10 53.22 52.67 49.74 51.99 44.76 53.34 56.74 55.74 54.33 55.27 55.90
51.11 50.92 50.88 51.18 51.51 51.49 51.55 51.87 51.95 51.74 50.94 49.07 48.23 44.16 40.44 37.53 38.68 40.62 41.07 40.74 40.67 43.39 42.27 41.83 43.33 46.62 49.00 49.15 48.34 47.42 47.51 48.47 51.63 53.06 53.31 55.08 53.61 49.98 48.05 48.44 52.27 53.40 55.55 55.08 54.24 54.47 57.59
50.92 50.97 50.69 50.92 51.37 51.41 51.60 51.63 51.88 51.58 51.27 51.43 51.04 48.73 41.73 36.73 38.48 41.80 40.57 40.34 38.68 39.76 42.34 43.38 47.04 49.48 49.45 45.93 43.85 41.66 41.02 45.78 45.72 49.32 54.63 55.00 56.43 52.61 50.40 46.64 45.06 53.09 59.09 61.39 60.09 52.43 59.11
50.69 50.55 50.67 50.63 50.94 51.29 51.58 51.79 51.74 51.40 51.10 50.58 50.28 51.52 43.66 36.68 42.27 42.93 39.61 38.61 42.29 41.26 40.67 43.22 45.31 45.35 48.58 43.16 41.26 42.22 42.49 48.30 44.58 44.84 47.19 49.80 51.49 49.22 51.00 49.43 51.98 59.26 60.61 60.75 51.64 54.07 63.21
51.06 50.68 50.61 50.37 50.69 51.12 51.18 51.20 50.99 50.75 50.74 50.39 48.37 50.72 43.84 39.07 40.39 45.07 45.77 43.08 42.17 42.22 38.90 42.70 44.24 44.85 45.58 42.98 43.85 44.41 44.99 47.03 47.08 50.89 50.26 49.29 49.20 48.82 50.92 49.04 45.42 60.26 59.92 55.94 60.51 64.51 65.30
51.03 51.14 50.86 50.80 50.61 50.69 50.66 50.37 50.10 50.10 50.39 50.69 46.39 52.12 50.68 43.03 41.29 48.41 47.79 47.63 48.34 47.92 45.03 44.98 43.97 41.62 44.04 43.30 43.88 44.28 45.60 48.49 49.67 45.08 54.59 49.13 53.01 51.00 52.86 53.06 61.64 62.35 62.49 63.11 62.80 62.22 64.79
MSLP
1023.97 1023.62 1023.24 1022.85 1022.43 1022.03 1021.58 1021.08 1020.60 1020.13 1019.70 1019.21 1018.65 1018.10 1017.49 1016.85 1016.10 1015.32 1014.64 1014.07 1013.43 1012.74 1012.39 1011.92 1011.56 1011.28 1010.27 1007.00 1003.59 1002.98 1003.87 1004.46 1004.43 1004.09 1003.05 1001.94 1001.36 1000.60 999.97 999.02 998.42 997.92 998.13 998.41 998.61 999.01 998.93
1024.12 1023.75 1023.40 1022.97 1022.52 1022.10 1021.68 1021.22 1020.68 1020.20 1019.69 1019.14 1018.54 1017.98 1017.38 1016.65 1015.83 1015.04 1014.22 1013.60 1012.97 1012.29 1011.75 1011.38 1011.17 1011.21 1009.25 1005.04 1001.89 1002.10 1002.61 1003.41 1003.04 1003.10 1002.35 1001.86 1000.83 1000.19 999.48 998.81 997.82 997.69 997.90 997.95 998.52 998.61 999.09
1024.24 1023.89 1023.50 1023.07 1022.54 1022.06 1021.62 1021.15 1020.66 1020.19 1019.71 1019.19 1018.55 1017.91 1017.21 1016.31 1015.41 1014.73 1013.79 1012.92 1012.34 1011.61 1010.97 1010.59 1010.48 1010.23 1006.84 1003.08 1001.23 1001.39 1001.97 1001.81 1001.52 1001.83 1001.37 1001.20 1000.69 1000.14 999.60 998.44 997.91 997.44 997.79 998.16 998.34 998.25 998.87
1024.33 1024.00 1023.62 1023.18 1022.76 1022.36 1021.85 1021.29 1020.73 1020.18 1019.70 1019.15 1018.43 1017.72 1017.05 1016.08 1015.10 1014.26 1013.39 1012.38 1011.65 1010.86 1010.16 1009.92 1009.97 1008.93 1004.33 1000.82 1000.95 1001.11 1001.29 1001.20 1001.11 1001.17 1000.90 1000.34 1000.59 999.80 999.19 998.66 997.62 997.62 997.65 996.82 997.43 998.04 998.46
1024.30 1024.00 1023.61 1023.18 1022.73 1022.29 1021.80 1021.28 1020.84 1020.27 1019.66 1019.06 1018.36 1017.53 1016.84 1015.69 1014.65 1013.58 1012.63 1011.66 1010.79 1010.18 1009.72 1009.49 1008.91 1006.85 1002.21 1001.07 1000.75 1000.53 1000.57 1000.41 1000.39 1000.66 1000.68 1000.42 1000.09 999.72 999.32 998.22 997.17 997.12 996.29 996.08 996.84 997.71 998.28
1024.09 1023.77 1023.38 1022.97 1022.55 1022.11 1021.61 1021.13 1020.63 1020.09 1019.51 1018.92 1018.29 1017.46 1016.58 1015.54 1014.48 1013.31 1011.95 1010.10 1009.62 1009.94 1009.46 1008.39 1006.76 1005.17 1001.02 999.26 999.00 999.21 999.53 999.77 999.64 999.92 1000.16 1000.13 999.59 999.18 998.50 997.45 995.97 995.59 995.75 994.97 995.88 997.23 998.06
1024.00 1023.64 1023.33 1022.93 1022.46 1021.94 1021.37 1020.85 1020.35 1019.90 1019.37 1018.74 1018.14 1017.48 1016.38 1015.31 1014.16 1013.04 1011.73 1008.22 1008.76 1008.20 1006.68 1003.76 1001.75 1000.45 998.90 998.44 999.21 999.30 999.26 999.34 999.20 999.27 998.68 998.82 998.51 997.20 996.97 996.61 996.07 994.97 994.69 994.93 994.97 996.07 997.51
1023.95 1023.57 1023.22 1022.82 1022.40 1021.96 1021.51 1020.97 1020.38 1019.77 1019.16 1018.48 1017.89 1017.24 1016.26 1015.03 1013.66 1012.60 1011.93 1008.14 1007.91 1007.82 1004.87 1002.30 1000.78 999.67 998.60 998.07 998.14 998.25 998.89 998.81 998.38 997.88 998.08 997.96 996.80 996.77 996.77 996.35 995.92 994.85 994.07 993.85 994.25 995.69 996.64
1023.91 1023.50 1023.10 1022.64 1022.16 1021.70 1021.24 1020.76 1020.23 1019.61 1019.08 1018.49 1017.72 1017.08 1016.30 1014.61 1012.84 1011.34 1009.60 1008.06 1007.95 1007.29 1004.52 999.69 998.04 997.58 997.51 998.17 997.53 997.08 997.89 997.92 997.43 997.26 996.59 995.64 995.79 996.38 995.99 995.59 995.25 994.71 993.71 993.46 993.83 995.07 996.14
1023.66 1023.28 1022.91 1022.51 1022.11 1021.66 1021.14 1020.58 1020.04 1019.49 1018.88 1018.22 1017.57 1016.85 1016.39 1015.21 1012.46 1010.32 1008.18 1008.16 1007.84 1007.51 1003.68 997.38 996.18 995.69 996.20 996.91 996.62 996.74 996.64 997.11 996.53 996.13 995.88 995.34 995.08 995.20 995.16 994.84 994.76 994.21 994.19 993.77 993.80 995.50 995.21
1023.46 1023.08 1022.70 1022.32 1021.91 1021.47 1021.04 1020.49 1019.92 1019.28 1018.59 1017.98 1017.36 1016.73 1016.30 1016.01 1013.83 1010.44 1008.47 1008.29 1007.86 1006.90 1001.32 995.15 995.12 995.23 995.30 995.79 994.11 995.19 995.68 996.23 995.65 995.48 995.36 994.31 994.22 994.22 994.31 993.85 994.30 994.12 994.16 994.23 993.94 994.11 995.01
1023.12 1022.72 1022.34 1021.97 1021.63 1021.20 1020.70 1020.24 1019.73 1019.08 1018.41 1017.71 1017.00 1016.44 1015.97 1013.25 1012.33 1010.00 1009.23 1008.55 1007.53 1004.72 997.71 994.16 994.27 994.68 994.82 994.75 993.97 994.11 995.11 995.54 995.63 995.10 994.69 994.01 994.32 993.96 993.48 994.09 994.28 994.59 994.22 993.91 994.01 993.78 993.80
1022.77 1022.38 1021.99 1021.65 1021.30 1020.94 1020.47 1019.94 1019.35 1018.69 1018.03 1017.35 1016.56 1015.66 1015.43 1014.34 1010.74 1008.97 1009.06 1007.90 1005.23 1000.24 995.17 993.20 993.01 993.24 993.33 993.22 993.52 993.83 994.21 994.20 994.11 994.17 993.66 993.86 993.29 993.53 993.47 993.96 994.22 994.61 994.07 993.30 993.05 992.83 992.67
1022.31 1021.93 1021.50 1021.17 1020.87 1020.46 1020.03 1019.60 1019.02 1018.31 1017.52 1016.67 1015.74 1014.56 1012.29 1011.03 1010.35 1010.01 1009.64 1007.06 1001.81 996.60 994.82 992.37 992.15 992.07 991.97 991.54 992.07 992.67 993.14 993.19 993.62 993.22 992.73 992.54 992.44 992.42 993.04 992.99 993.03 993.17 993.03 992.36 992.05 992.26 992.31
1021.91 1021.49 1021.11 1020.82 1020.55 1020.12 1019.72 1019.29 1018.79 1018.07 1017.43 1016.60 1015.15 1011.78 1009.85 1008.55 1009.04 1009.59 1008.10 1003.79 998.33 996.75 994.09 992.98 992.09 991.27 990.92 990.89 990.84 991.19 991.59 991.73 991.94 992.45 991.99 991.25 991.29 992.10 992.31 993.19 993.30 992.33 992.05 992.55 992.22 991.96 991.46
1021.51 1021.12 1020.79 1020.45 1020.08 1019.69 1019.35 1019.00 1018.59 1017.95 1017.32 1016.41 1014.84 1011.56 1008.09 1007.74 1009.01 1009.01 1006.55 1000.57 997.85 996.49 994.28 993.43 991.90 991.10 990.26 989.98 990.27 990.33 990.03 990.34 990.69 991.30 991.84 991.08 990.67 991.00 991.33 992.57 992.56 991.76 992.13 992.04 991.19 990.54 989.85
1021.10 1020.72 1020.35 1019.95 1019.56 1019.20 1018.93 1018.61 1018.28 1017.83 1017.27 1015.92 1014.16 1009.81 1007.59 1008.07 1008.50 1007.66 1003.71 1000.64 999.54 997.70 996.24 994.69 993.17 991.67 990.52 989.72 989.27 989.37 989.45 989.40 989.70 989.92 991.20 991.32 990.75 990.32 990.96 990.39 990.72 991.42 990.60 990.53 991.06 990.86 989.74
1020.76 1020.39 1019.99 1019.50 1019.17 1018.88 1018.60 1018.24 1017.96 1017.69 1017.13 1015.12 1012.82 1009.02 1007.26 1007.90 1007.12 1005.07 1002.85 1001.32 1000.04 997.65 996.19 995.24 994.30 992.83 991.43 990.22 989.14 988.53 988.53 988.63 988.77 989.43 989.38 990.77 990.68 989.96 989.44 989.98 990.66 990.87 990.56 990.47 989.85 990.30 989.94
1020.38 1019.92 1019.47 1019.02 1018.68 1018.31 1018.02 1017.75 1017.62 1017.53 1017.26 1015.69 1012.33 1008.76 1006.61 1006.83 1005.41 1003.66 1002.39 1000.63 999.35 998.24 996.71 995.60 994.39 993.95 993.14 991.35 989.96 988.84 988.55 988.95 989.11 989.78 989.50 990.01 990.15 989.77 989.75 989.74 989.51 989.63 989.70 989.53 989.62 989.76 988.93
1019.94 1019.45 1018.97 1018.53 1018.18 1017.87 1017.61 1017.36 1017.27 1017.22 1017.18 1016.81 1013.47 1008.58 1005.63 1005.67 1005.29 1003.85 1002.53 1001.06 999.53 998.57 997.68 996.83 995.92 994.55 993.66 992.43 991.13 990.22 989.47 989.15 989.46 990.38 990.42 990.26 989.72 989.33 987.96 988.45 988.66 989.08 989.46 989.25 988.89 988.22 988.21
1019.34 1018.89 1018.50 1018.09 1017.69 1017.49 1017.26 1016.91 1016.85 1016.90 1017.00 1017.13 1013.63 1009.92 1008.77 1006.46 1004.43 1005.38 1004.41 1002.93 1001.60 1001.23 999.90 998.08 996.97 995.41 994.08 993.01 992.12 991.07 990.59 989.68 989.61 989.97 991.06 990.72 989.68 989.40 989.20 988.59 988.54 988.11 988.42 988.81 988.26 988.04 988.02
1018.74 1018.29 1017.87 1017.56 1017.27 1017.00 1016.78 1016.56 1016.49 1016.39 1016.60 1016.68 1014.87 1011.94 1010.25 1008.69 1007.45 1006.22 1005.40 1003.77 1002.66 1001.76 1001.27 1000.47 998.78 996.98 995.71 993.82 992.39 991.68 990.86 989.89 989.26 989.63 990.71 990.69 989.87 989.86 988.86 988.83 988.74 987.79 987.67 988.14 988.20 988.08 987.90
1018.16 1017.63 1017.18 1016.81 1016.62 1016.40 1016.20 1015.98 1015.97 1015.93 1016.26 1015.76 1014.25 1013.50 1012.49 1009.89 1008.12 1007.05 1005.90 1004.82 1003.40 1002.79 1002.37 1001.90 1001.62 1001.03 998.53 997.00 994.59 993.41 991.60 989.84 989.81 989.24 989.94 990.01 990.09 990.20 989.05 989.09 988.58 987.84 986.85 986.81 987.36 987.83 988.11
1017.54 1017.01 1016.47 1016.10 1015.75 1015.55 1015.34 1015.33 1015.22 1015.33 1015.55 1015.48 1015.04 1014.83 1013.27 1010.34 1008.45 1007.32 1007.29 1006.47 1006.07 1004.64 1004.33 1002.56 1002.72 1002.70 1000.73 1000.09 996.84 994.29 992.64 990.78 989.41 989.38 989.69 989.70 990.13 989.92 989.46 989.59 988.21 986.85 987.17 987.13 986.95 986.95 987.29
1016.87 1016.40 1015.98 1015.49 1015.08 1014.72 1014.59 1014.51 1014.42 1014.44 1014.67 1014.96 1014.79 1014.62 1014.07 1011.24 1009.28 1007.91 1006.98 1006.13 1006.08 1005.45 1003.78 1003.29 1002.51 1002.88 1001.74 1000.22 996.90 994.37 992.42 991.74 990.60 989.98 989.88 989.88 990.10 990.01 989.51 988.97 988.05 987.49 987.27 986.71 986.70 986.72 986.96
1016.15 1015.69 1015.26 1014.81 1014.48 1014.15 1013.94 1013.79 1013.66 1013.66 1013.77 1014.01 1013.82 1014.22 1014.26 1012.80 1009.77 1008.35 1008.02 1007.17 1006.30 1005.65 1004.22 1003.15 1003.07 1002.58 1001.97 1000.86 998.69 995.41 992.86 991.80 991.57 991.11 991.00 990.46 990.22 989.97 989.57 988.55 987.50 987.38 987.69 987.88 987.81 987.16 987.59
1015.35 1014.90 1014.54 1014.22 1013.89 1013.53 1013.33 1013.12 1012.99 1013.00 1013.10 1013.20 1013.08 1013.14 1013.61 1012.87 1010.39 1009.49 1008.14 1007.70 1007.47 1006.18 1004.97 1004.13 1003.26 1002.67 1001.45 1000.21 999.36 996.63 994.10 992.24 990.90 990.49 990.47 990.07 989.93 989.35 988.76 988.29 988.12 988.82 988.44 989.06 988.73 989.02 989.12
1014.59 1014.19 1013.90 1013.64 1013.36 1013.08 1012.82 1012.61 1012.52 1012.52 1012.58 1012.67 1012.13 1012.73 1013.23 1012.16 1010.46 1009.70 1008.30 1007.32 1006.65 1005.95 1004.80 1004.72 1003.24 1003.17 1002.10 1001.74 1000.50 997.67 995.19 993.20 991.62 990.07 989.41 989.34 989.15 988.53 989.11 988.56 989.07 990.30 990.03 989.12 990.28 990.27 989.82
1014.17 1013.67 1013.46 1013.24 1012.99 1012.72 1012.55 1012.42 1012.34 1012.21 1012.18 1012.31 1012.15 1011.50 1012.22 1011.95 1010.30 1008.64 1007.81 1007.45 1006.34 1005.26 1004.75 1003.92 1003.86 1004.47 1004.32 1003.33 1002.13 1000.38 997.65 994.70 992.53 991.49 989.37 988.55 988.04 988.37 988.56 988.34 989.70 991.09 991.09 991.20 990.79 990.63 990.38
Wind_Speed
17 18 18 18 18 19 19 20 20 20 20 21 22 22 23 24 25 25 25 23 24 24 22 20 17 15 12 11 19 15 16 10 16 19 20 19 21 20 20 18 17 14 8 4 6 8 12
17 18 18 18 18 19 19 20 20 21 21 22 22 22 23 23 24 25 25 24 24 25 23 20 15 10 9 19 16 18 12 16 17 21 21 21 19 20 18 20 17 11 12 1 4 12 9
16 17 18 18 18 20 20 21 22 22 22 23 23 22 23 24 26 26 27 26 27 26 23 17 11 10 13 20 6 8 12 13 13 19 21 22 23 21 20 19 18 15 5 9 8 13 12
16 17 17 17 17 17 18 20 21 22 22 22 23 24 24 26 27 27 26 28 28 25 17 10 10 10 11 8 12 18 15 16 14 14 18 17 21 22 20 20 16 15 15 14 16 13 12
16 16 17 17 17 17 18 19 20 20 20 21 22 24 25 27 28 29 28 29 26 14 7 5 11 11 18 5 13 16 17 19 17 16 16 16 19 23 19 20 15 18 16 20 16 15 14
16 17 18 19 19 18 18 18 19 19 21 21 21 23 25 27 28 30 32 31 6 6 9 10 10 9 13 14 11 9 11 16 16 16 15 20 16 19 20 19 17 21 21 20 19 17 12
16 17 18 19 20 19 19 19 19 20 21 22 22 23 26 28 29 30 21 5 8 10 14 16 7 15 10 6 6 11 12 17 18 18 19 22 20 25 27 25 22 22 20 11 15 24 19
15 17 17 17 18 18 19 19 20 20 21 22 23 23 26 29 31 29 14 10 7 8 15 20 25 26 22 7 10 15 16 18 19 19 23 20 25 26 25 26 26 27 21 18 14 20 19
15 15 16 16 17 18 19 19 21 21 20 21 22 23 24 31 33 16 13 9 6 13 11 17 25 25 25 23 21 17 20 22 21 24 26 24 24 27 28 26 27 26 25 17 16 20 17
15 16 16 16 16 16 18 19 20 21 21 22 22 23 22 30 15 15 6 6 8 10 10 13 10 11 20 19 22 25 23 23 19 24 24 26 21 27 28 30 27 25 24 19 18 16 13
16 15 16 18 15 15 16 18 19 21 21 22 23 23 21 18 15 9 9 10 10 7 10 13 13 13 17 20 7 26 27 25 24 21 20 24 22 28 30 29 27 24 25 22 22 18 24
17 16 16 16 16 16 16 18 19 20 21 22 23 23 22 15 10 15 14 10 8 10 13 10 12 15 19 23 13 12 27 26 21 23 23 25 23 28 24 26 24 23 24 24 23 19 17
18 18 18 17 16 16 15 17 19 20 21 22 23 23 21 13 11 7 8 9 10 14 5 12 17 20 22 22 21 15 27 28 25 25 23 23 28 23 20 22 26 29 25 17 18 18 18
17 17 18 16 15 15 14 16 17 20 21 23 24 28 14 11 13 12 8 11 19 11 29 2 16 20 24 21 22 22 24 25 29 25 18 22 24 30 21 29 27 31 28 20 26 17 20
18 17 16 14 14 15 16 16 17 19 20 23 29 11 11 10 7 9 11 20 15 21 17 19 15 19 23 22 17 24 26 25 28 28 25 21 26 22 28 26 29 29 31 26 27 25 21
18 16 15 15 15 15 15 16 16 19 19 23 13 15 14 10 7 10 14 29 23 32 15 15 26 19 23 25 21 21 24 24 27 30 29 23 18 25 26 25 28 35 23 28 23 28 26
17 16 16 17 17 15 15 15 15 16 18 24 12 7 8 5 7 10 18 23 27 35 31 24 26 25 26 24 27 25 24 19 23 26 28 27 20 15 25 32 30 22 29 25 25 24 21
19 17 18 18 17 16 16 15 14 13 16 19 10 8 9 5 10 10 18 27 25 30 27 28 26 28 25 27 26 27 29 21 19 19 30 27 18 19 21 22 28 28 28 32 19 27 20
19 19 18 18 16 16 15 14 12 11 12 10 9 12 12 9 12 15 22 28 27 27 28 27 26 30 27 29 25 23 17 22 9 10 20 23 24 19 22 22 28 31 33 32 32 23 26
19 19 18 17 16 17 16 13 11 9 9 8 9 9 8 11 13 17 20 21 22 20 23 20 27 26 27 30 26 22 24 23 15 12 8 10 22 27 19 23 18 29 30 32 30 25 20
20 20 19 18 17 16 15 13 9 9 4 3 7 10 4 11 9 11 19 16 13 17 24 22 25 28 26 27 27 28 27 23 25 17 19 17 21 26 29 27 23 24 30 30 34 28 28
22 21 20 19 18 17 17 14 10 9 4 3 5 7 9 13 18 21 18 19 18 20 15 20 25 22 23 27 23 26 27 29 19 20 19 22 19 21 24 25 27 25 25 26 28 30 30
22 22 21 21 20 19 18 15 12 8 9 4 6 10 9 9 16 13 13 23 18 14 8 16 11 15 21 22 21 19 21 21 22 22 23 24 19 20 21 22 21 26 26 27 28 28 28
22 23 22 21 19 19 19 17 15 12 13 4 4 2 6 13 13 15 16 4 20 16 16 21 16 10 20 24 26 20 17 17 17 26 19 20 21 16 16 21 27 17 23 26 26 23 25
23 22 22 21 20 18 17 15 15 13 11 7 3 3 4 10 11 17 15 15 6 22 18 16 21 15 16 24 13 9 11 14 18 14 19 19 18 17 16 19 19 23 25 25 24 27 26
24 22 21 20 19 17 17 16 14 14 11 8 7 5 4 4 10 8 14 15 11 11 18 17 10 15 12 11 11 13 17 16 23 23 21 21 16 16 20 25 28 18 7 6 3 11 12
22 22 20 18 17 16 17 17 14 12 10 8 5 10 3 5 13 18 14 10 11 9 8 10 5 10 13 6 10 14 15 19 22 29 21 22 20 22 18 17 21 8 9 4 12 3 6
21 18 16 16 17 17 14 13 8 10 9 8 6 9 6 5 10 21 24 21 16 14 8 7 10 1 7 7 10 12 12 14 19 20 27 24 22 18 20 23 12 6 5 11 4 4 8
16 14 13 13 12 10 10 7 7 9 9 9 5 6 7 6 7 20 22 22 25 19 14 9 9 4 3 4 4 6 5 8 12 15 24 26 22 16 18 20 13 12 5 4 3 3 5
Wind_Direction
8 7 5 5 3 2 359 357 355 353 351 349 345 343 340 335 331 326 324 321 319 315 311 306 304 308 290 240 251 148 148 167 178 203 217 218 220 219 227 237 235 226 216 195 158 173 166
4 3 2 0 1 1 358 354 352 350 348 345 342 340 337 332 327 325 321 318 315 310 305 298 289 289 245 259 262 140 199 163 201 206 211 224 227 228 236 247 243 194 252 112 247 174 157
1 359 358 355 358 356 354 353 351 348 346 344 340 337 334 328 324 322 318 316 313 308 302 290 257 228 257 248 285 179 192 209 215 201 221 216 231 227 234 255 247 243 227 208 223 171 163
358 355 354 352 352 351 349 349 349 346 344 341 337 334 332 326 322 321 317 312 309 305 294 272 207 217 258 265 234 238 221 228 227 220 234 223 226 243 244 236 231 234 216 215 166 175 148
354 351 349 348 347 344 342 342 344 343 341 339 334 331 331 323 322 321 316 309 303 290 289 186 189 232 258 131 216 227 217 225 209 217 219 239 214 230 240 242 227 215 222 232 151 178 151
347 346 344 343 342 340 338 335 337 339 338 338 335 331 329 323 321 318 318 296 278 246 219 219 268 238 239 228 185 185 214 217 197 198 199 213 210 215 227 216 220 209 223 215 173 173 175
340 340 338 337 335 335 335 334 330 332 333 334 335 332 328 323 321 317 324 287 213 192 222 243 230 234 132 176 134 208 183 203 198 195 199 194 204 211 214 215 231 230 209 214 211 164 194
331 330 331 329 327 326 328 328 328 324 327 331 332 334 329 323 318 315 289 294 41 337 291 264 254 252 262 268 229 211 175 202 202 204 204 183 215 214 220 218 225 243 237 219 194 155 192
328 321 320 323 323 321 324 326 329 328 322 326 329 332 333 324 318 291 320 313 337 337 265 273 234 234 222 231 233 225 189 204 205 210 203 212 206 214 212 222 221 234 243 220 216 153 180
319 323 321 319 321 318 321 323 325 326 324 324 326 327 334 329 288 338 290 9 303 324 272 254 201 225 213 207 232 225 199 210 223 220 219 227 212 204 223 222 219 223 239 253 230 156 220
314 318 317 314 313 319 320 321 320 321 324 323 322 322 326 315 303 285 5 321 313 258 277 114 135 127 172 189 131 198 215 210 221 215 223 214 215 209 215 219 221 229 224 231 245 191 236
304 303 305 309 312 315 319 319 318 316 318 319 318 315 322 297 238 261 290 287 259 230 235 184 153 185 175 205 219 142 202 204 223 231 225 237 212 231 214 222 224 231 239 231 230 249 233
309 308 298 298 308 311 312 315 314 314 313 313 310 304 301 281 253 12 316 261 227 235 138 197 182 184 199 194 212 183 194 197 211 213 220 222 231 215 225 220 216 226 228 231 225 224 240
305 305 305 288 295 296 300 305 307 311 311 313 305 300 272 251 229 251 256 226 234 242 229 83 208 194 205 214 197 186 194 206 213 215 219 215 210 225 205 220 216 216 221 227 222 227 229
307 307 309 305 302 300 299 304 308 311 316 315 307 292 282 254 212 230 231 223 224 237 275 236 221 233 205 218 216 198 207 212 209 217 225 214 225 210 217 216 230 208 221 226 238 230 237
311 312 317 311 303 304 303 305 310 315 321 313 309 293 266 252 167 222 234 237 235 252 260 270 243 226 233 205 207 239 203 212 214 211 229 235 246 212 212 218 222 239 212 219 228 237 235
313 308 306 307 307 304 308 307 313 318 321 310 275 281 95 178 207 233 241 246 242 263 276 266 263 247 244 236 221 213 232 218 213 211 213 232 240 228 213 202 215 217 233 220 232 235 247
309 305 305 305 305 305 305 305 312 317 326 296 292 270 123 209 234 232 246 254 263 268 251 246 260 265 262 259 245 226 217 229 216 215 210 215 228 233 233 226 213 230 226 235 224 224 245
312 310 308 305 303 302 299 303 304 316 331 317 280 289 270 195 250 246 250 258 253 261 261 257 252 242 254 261 258 247 229 243 168 236 233 202 224 226 221 239 212 214 233 226 232 225 230
309 308 307 306 305 306 302 297 295 302 325 295 282 283 240 194 251 265 273 280 281 278 257 266 264 264 238 250 256 253 245 238 180 211 288 298 220 226 225 225 223 216 222 239 232 232 224
304 303 301 301 304 301 302 294 294 294 315 300 258 273 16 288 256 336 315 302 284 287 299 280 252 252 251 235 238 243 240 237 241 180 240 246 239 228 226 249 227 227 216 225 240 237 237
303 300 295 292 291 294 294 294 290 280 181 236 279 308 319 293 293 292 278 270 272 275 290 295 287 288 247 253 238 238 237 230 232 204 212 227 231 240 237 223 243 251 217 226 239 242 243
308 305 300 293 287 286 284 285 289 281 169 252 255 284 278 280 284 278 260 282 294 329 314 244 354 324 311 0 326 313 299 243 224 217 201 213 218 224 231 234 238 238 243 222 216 224 238
306 304 300 297 290 287 285 277 275 271 202 224 252 270 269 271 279 280 317 269 295 296 284 292 303 283 291 317 303 283 258 265 235 222 236 226 218 226 228 222 231 241 239 242 254 245 230
307 306 304 301 295 290 287 282 268 263 248 219 219 209 270 268 291 289 270 289 261 290 279 282 292 284 288 298 288 240 210 223 238 235 232 225 224 218 228 236 242 227 239 234 234 236 240
303 303 306 301 298 293 289 283 268 262 253 230 237 181 238 274 257 279 308 298 285 264 274 260 258 276 292 265 290 258 212 208 217 222 231 236 229 234 204 233 228 227 65 30 345 252 262
306 303 302 296 299 295 292 285 270 263 254 239 235 207 194 251 266 272 273 304 310 298 272 251 347 287 223 262 259 238 233 225 214 212 207 217 217 227 225 221 236 93 127 139 208 253 349
310 306 303 302 303 298 298 292 272 268 261 211 233 199 214 230 270 275 275 278 279 284 256 276 289 171 277 228 232 235 246 234 250 227 209 205 203 215 216 231 216 28 209 217 127 310 347
338 319 309 310 316 308 309 296 305 300 268 215 255 226 205 232 275 295 279 263 264 261 281 266 263 280 303 289 24 305 278 303 241 243 221 206 208 210 217 225 100 129 97 97 27 1 342